Regional Weather Roundup
Issued by NWS Burlington, VT

Current Version | Previous Version | Graphics & Text | Print | Product List | Glossary Off
Versions: 1 2 3 4 5 6 7 8 9 10 11 12 13 14 15 16 17 18 19 20 21 22 23 24 25 26 27 28 29 30 31 32 33 34 35 36 37 38 39 40 41 42 43 44 45 46 47 48 49 50

000
ASUS41 KBTV 251510
RWRBTV
VERMONT REGIONAL WEATHER ROUNDUP
NATIONAL WEATHER SERVICE BURLINGTON VT
1000 AM EST SAT FEB 25 2017

NOTE: "FAIR" INDICATES FEW OR NO CLOUDS BELOW 12,000 FEET WITH NO
SIGNIFICANT WEATHER AND/OR OBSTRUCTIONS TO VISIBILITY.

* THESE REPORTS ARE NOT UNDER NWS QUALITY CONTROL AND/OR DO NOT
  REPORT WEATHER SUCH AS PRECIPITATION AND FOG.

VTZ001>019-251600-
_____VERMONT_____


CITY           SKY/WX    TMP DP  RH WIND       PRES   REMARKS
BURLINGTON     CLOUDY    59  52  77 S14       29.59F
MONTPELIER     CLOUDY    54  52  93 S9        29.70F
MORRISVILLE    CLOUDY    43  43 100 CALM      29.66F FOG
ST. JOHNSBURY*   N/A     44  42  93 MISG      29.67F
LYNDONVILLE*   CLOUDY    48  48  99 CALM      29.70F FOG
MIDDLEBURY*    CLOUDY    62  43  49 S13G21    29.61F
RUTLAND*       CLOUDY    59  52  77 SE15      29.66F
SPRINGFIELD    CLOUDY    53  50  89 S9        29.72F
HIGHGATE*      CLOUDY    46  46 100 E3        29.58F
NEWPORT*       FAIR      51  49  90 SE17G23   29.65S
BENNINGTON     MOSUNNY   66  51  58 S14G23    29.66F
SUTTON*          N/A     48 N/A N/A MISG        N/A

_____LAKE CHAMPLAIN_____


CITY           SKY/WX    TMP DP  RH WIND       PRES   REMARKS
BURTON ISLAND*   N/A     43  43 100 SW14G20     N/A
COLCHESTER RF*   N/A     46  46 100 S26G33      N/A
DIAMOND ISL*     N/A     52  52 100 S10         N/A

$$

NYZ007-026>031-035-052-083-087-251600-
_____NORTHERN NEW YORK_____


CITY           SKY/WX    TMP DP  RH WIND       PRES   REMARKS
PLATTSBURGH    CLOUDY    51  49  92 SE9       29.56F
SARANAC LAKE   CLOUDY    56  51  84 S10G23    29.54F
MASSENA        CLOUDY    36  36 100 E9        29.52F WCI  29
OGDENSBURG*    CLOUDY    39  38  97 E5        29.48F
POTSDAM*       DRIZZLE   39  39 100 CALM      29.49F
WATERTOWN      CLOUDY    60  54  80 SE9       29.44F
FT DRUM        CLOUDY    55  52  88 S12       29.46F
ALBANY         PTSUNNY   64  53  67 S18G30    29.64F
GLENS FALLS    CLOUDY    64  53  67 S15G22    29.61F

$$
NHZ002-005-011-251600-
_____NEW HAMPSHIRE_____


CITY           SKY/WX    TMP DP  RH WIND       PRES   REMARKS
LEBANON        CLOUDY    50  48  93 CALM      29.71F FOG
KEENE          CLOUDY    61  55  82 S14G20    29.74F
MT WASHINGTON  DRZL/FOG  39  39 100 S33G52      N/A  VSB 1/16WCI  27
PLYMOUTH       FOG       42  42  99 CALM      29.76F VSB 1/4
WHITEFIELD     CLOUDY    60  49  66 S8G17     29.70F

$$

_____REGIONAL QUEBEC LOCATIONS_____


CITY           SKY/WX    TMP DP  RH WIND       PRES   REMARKS
MONTREAL       FOG       34  32  93 N14       29.56F VSB 1   WCI  24
QUEBEC CITY    CLOUDY    30  27  86 E15G24    29.73F WCI  19
SHERBROOKE     SUNNY     48  45  87 VRB2      29.62F

_____REGIONAL ONTARIO LOCATIONS_____


CITY           SKY/WX    TMP DP  RH WIND       PRES   REMARKS
OTTAWA         FOG       34  34 100 E12       29.47F VSB 3/4 WCI  25

______KEY______
VSB  - VISIBILITY IN MILES
WCI  - WIND CHILL INDEX
HX   - HEAT INDEX
$$
NNNN




USA.gov is the U.S. government's official web portal to all federal, state and local government web resources and services.